GFSNE_prec_cthk_024.txt.gz
RH
58 61 64 68 67 64 56 56 60 54 43 43 45 47 46 46 45 43 39 37 37 36 37 48 63 61 54 44 34 30 32 33 34 41 44 55 59 50
60 68 73 73 71 61 56 58 60 58 48 46 47 56 59 56 54 53 52 46 40 32 31 31 46 65 63 55 44 33 31 32 35 39 44 48 54 56
68 72 74 78 73 53 54 58 57 56 53 42 59 65 67 66 66 67 64 61 57 50 45 40 36 46 67 62 56 43 32 32 33 39 46 50 50 56
72 76 82 70 51 52 54 51 49 51 58 62 71 73 75 76 76 74 71 70 72 68 67 57 45 38 52 67 62 53 40 32 41 40 43 47 52 52
78 81 66 46 46 48 46 46 50 57 73 78 77 83 84 85 82 83 83 82 78 79 77 65 52 38 39 57 66 63 51 38 42 43 43 49 59 60
72 50 41 42 43 42 40 47 54 71 82 84 85 87 89 89 88 87 84 87 90 92 89 76 61 46 37 40 56 64 60 49 46 55 57 50 56 73
42 42 41 43 39 39 44 52 67 80 86 88 90 92 93 93 88 86 85 88 92 96 97 92 76 63 57 51 47 59 61 60 51 59 72 62 59 78
41 40 45 43 43 41 46 59 76 85 88 91 93 94 95 88 84 85 88 95 95 97 98 98 92 71 65 63 59 53 62 68 62 62 62 58 84 85
42 46 44 43 45 48 54 68 82 80 75 83 94 97 94 84 84 88 89 93 98 98 98 98 94 82 68 62 49 35 55 73 71 70 67 58 89 92
49 46 43 43 47 49 57 69 78 84 78 90 97 97 90 80 84 91 94 95 92 94 97 96 95 84 71 63 48 35 50 75 80 85 74 69 68 94
49 45 42 41 45 48 51 71 82 81 81 94 95 93 82 75 85 92 94 94 96 94 90 91 90 78 68 61 48 37 48 79 86 95 91 84 75 73
47 43 41 40 39 50 51 65 82 81 77 95 95 96 87 78 87 92 95 97 98 98 98 97 94 86 78 64 51 43 47 77 95 98 99 97 89 86
46 43 43 37 35 41 48 65 73 73 72 96 96 95 95 80 83 91 93 95 93 94 95 96 93 89 80 74 60 44 48 76 98 99 99 99 98 96
43 43 39 35 35 36 44 53 70 72 76 96 98 95 99 89 82 85 89 89 89 89 89 89 82 76 70 62 57 52 47 77 98 95 97 97 98 98
38 36 37 36 37 39 43 43 64 78 76 92 99 96 98 98 88 82 82 83 84 83 80 79 75 68 62 58 57 54 55 65 86 91 92 92 94 96
43 38 36 37 39 43 49 51 54 69 77 82 98 98 94 99 99 91 87 83 81 81 79 77 75 71 65 62 57 56 57 74 75 78 74 77 78 78
42 38 42 42 44 46 50 53 53 55 76 76 87 99 97 93 98 99 94 90 89 86 83 80 78 76 70 65 61 56 56 66 77 79 75 76 71 72
46 45 43 42 42 43 46 50 55 54 53 78 73 80 99 96 91 96 99 97 93 91 89 88 84 79 77 71 67 64 62 67 75 76 76 77 77 75
53 51 47 45 43 42 41 44 48 54 52 56 83 75 66 94 96 88 90 99 98 94 91 89 88 89 87 83 78 80 83 81 81 82 81 78 76 77
60 57 52 50 47 45 42 40 39 41 50 53 60 80 84 63 80 95 88 88 91 97 96 94 92 88 91 92 92 89 89 92 89 88 87 86 85 82
68 69 61 57 54 50 47 43 36 36 38 44 53 59 77 91 68 64 83 82 84 87 88 89 89 88 86 85 85 84 82 80 80 80 80 83 85 83
62 66 69 66 62 58 54 50 45 41 42 44 47 50 60 73 95 79 56 71 78 79 83 84 83 82 82 84 85 86 88 88 87 84 83 83 84 85
65 64 68 73 73 68 63 58 54 45 42 42 45 47 49 61 70 93 89 58 53 63 68 84 83 82 81 81 79 79 78 81 83 84 85 85 84 84

GFSNE_prec_cthk_027.txt.gz
RH
66 75 70 60 68 74 74 72 75 59 50 54 54 54 56 52 52 52 52 47 45 41 36 33 33 31 32 43 54 42 36 31 28 27 28 29 39 48
73 73 60 66 75 77 77 76 64 63 55 54 49 49 52 59 63 61 58 56 52 52 50 44 34 28 26 25 43 55 43 37 31 29 28 27 40 50
64 57 67 73 75 77 79 59 57 59 57 42 45 49 62 66 69 70 67 64 62 62 59 57 51 40 36 28 28 51 57 43 35 30 30 28 35 40
69 64 70 75 74 64 49 51 51 50 49 46 42 59 70 74 74 75 75 77 73 69 69 72 64 62 52 40 28 28 59 56 42 34 32 30 31 39
66 69 70 66 47 46 46 47 46 47 49 51 55 70 75 78 78 81 81 80 80 77 76 78 75 71 66 50 37 26 45 63 51 37 33 38 35 34
66 63 49 43 44 42 43 42 45 45 49 58 72 78 80 84 86 85 86 81 74 70 75 82 87 83 74 58 41 28 31 61 63 49 38 44 41 36
55 45 43 42 41 41 42 40 47 50 57 70 78 73 75 87 87 86 83 74 71 75 81 83 93 95 86 79 57 40 33 53 66 60 49 47 51 43
44 43 44 48 50 47 45 43 48 56 64 76 79 75 82 91 91 90 77 75 75 81 89 92 95 99 96 91 82 74 58 50 62 70 62 54 58 49
45 44 47 51 51 46 44 45 52 59 74 82 82 81 90 91 92 79 76 82 83 86 92 89 96 98 97 92 78 59 52 42 57 76 74 60 67 70
48 50 53 52 46 39 38 45 51 62 80 83 77 85 92 88 87 73 79 83 84 87 88 92 87 90 93 89 71 57 46 34 51 77 79 71 73 85
52 52 52 42 41 33 33 45 49 64 73 75 74 89 87 84 80 74 82 87 89 93 94 91 90 92 88 82 69 55 47 36 46 79 86 75 68 95
52 54 51 40 37 31 32 39 48 63 68 68 81 91 90 92 85 76 86 91 96 91 96 99 95 93 87 87 79 62 51 39 47 78 86 89 75 68
54 50 50 40 33 32 33 37 46 46 63 77 85 93 92 90 91 78 85 89 91 96 92 97 95 95 93 97 91 80 58 47 60 78 89 93 94 82
54 47 42 34 32 32 36 40 41 51 64 79 86 95 94 88 93 84 81 86 87 88 91 92 90 93 94 89 89 84 61 48 76 81 94 99 98 91
51 43 36 33 32 33 39 43 47 54 57 72 82 95 96 90 91 94 86 83 85 81 82 84 85 86 82 82 77 76 66 55 79 86 97 99 98 95
53 48 41 39 37 36 39 45 50 55 53 66 77 87 97 96 90 94 94 89 87 90 90 84 83 80 76 75 72 68 63 61 76 86 94 93 90 94
54 48 49 51 45 45 44 43 46 50 56 54 67 78 86 98 96 91 96 96 91 87 87 87 83 79 76 71 66 61 60 61 67 81 86 85 81 79
56 56 54 55 50 51 48 45 43 45 49 53 58 70 82 79 98 95 91 97 98 96 92 88 89 85 77 71 66 65 57 54 61 67 80 85 83 80
58 59 63 61 56 56 53 49 46 43 40 46 51 59 68 83 74 97 93 90 95 98 96 92 89 88 88 84 74 68 64 63 64 64 74 80 81 79
62 60 62 69 66 63 61 56 49 43 39 40 44 50 56 66 89 75 91 92 90 94 99 97 93 88 89 89 87 75 73 75 69 73 78 81 81 79
65 67 68 69 72 68 66 61 56 51 44 40 41 45 50 55 65 88 77 81 86 87 89 96 96 94 93 91 90 86 85 85 84 84 86 86 86 85
69 68 70 69 71 72 73 70 65 59 53 45 42 42 46 51 57 64 89 80 73 81 84 86 88 89 92 93 93 89 88 87 86 88 89 89 92 94
75 72 69 69 68 68 73 77 76 70 64 52 44 43 44 48 53 58 64 87 84 59 66 79 89 87 86 86 85 87 88 90 90 88 84 83 82 83

GFSNE_prec_cthk_030.txt.gz
RH
53 60 66 68 75 76 66 70 78 72 56 53 43 48 53 49 43 39 39 43 44 44 43 41 39 37 38 34 30 26 38 45 39 31 24 22 21 27
49 59 66 72 75 62 62 70 78 77 55 43 45 49 44 40 33 37 46 50 48 49 47 46 48 47 44 42 34 27 27 36 43 41 32 25 22 21
38 45 61 65 67 68 69 70 63 49 46 41 41 39 37 37 38 49 53 52 51 55 59 57 57 58 55 52 47 39 28 23 32 44 41 32 25 22
46 53 61 64 61 64 60 42 37 39 42 42 40 37 40 43 54 58 60 62 63 64 62 64 63 62 59 58 61 53 41 28 26 40 48 35 30 23
49 49 50 52 52 42 36 37 37 39 41 40 37 38 46 57 61 61 64 69 73 71 70 67 67 67 69 70 69 66 56 42 28 30 46 46 36 28
48 47 47 41 37 37 38 38 40 40 38 39 42 46 54 63 68 67 72 76 74 70 65 55 53 58 68 73 73 70 61 50 34 25 41 49 41 32
42 44 42 39 38 38 40 43 41 39 40 43 47 53 65 68 70 79 84 78 73 69 60 57 67 71 70 76 82 78 76 57 38 28 39 49 44 39
37 42 40 40 44 46 46 42 41 40 43 51 56 67 74 78 83 87 83 80 66 57 66 58 71 71 82 93 93 92 92 88 64 38 39 49 53 48
42 42 40 44 45 47 43 39 33 39 48 53 62 72 75 77 83 79 76 73 62 62 66 58 70 74 88 93 90 84 93 87 69 45 41 53 60 56
46 42 42 46 46 42 37 31 30 35 45 55 63 67 70 83 83 79 78 63 71 73 77 73 81 77 83 82 81 82 81 74 62 51 42 64 73 66
44 43 43 50 44 42 36 30 30 34 43 49 52 63 79 87 87 86 82 72 77 81 85 84 90 86 83 79 81 75 78 73 56 45 44 75 79 73
46 46 45 50 45 40 33 30 29 34 37 45 54 71 84 90 88 88 85 74 85 83 89 93 93 93 86 88 95 93 82 75 59 41 51 76 83 77
47 44 51 48 42 36 32 31 32 35 41 47 53 68 86 89 86 86 89 78 80 87 90 95 93 90 90 89 90 97 96 83 63 47 58 83 90 83
49 48 52 44 39 36 34 34 36 37 42 45 53 62 84 91 88 85 90 84 81 87 85 86 90 96 90 86 87 91 94 82 66 63 71 89 94 91
55 53 50 45 42 41 39 37 36 36 39 43 50 59 69 92 91 88 87 92 86 86 83 83 88 93 92 89 85 88 89 83 68 77 86 94 99 97
60 56 53 49 49 48 45 43 41 38 38 40 45 53 64 72 92 92 87 90 91 87 86 90 90 90 87 85 85 84 84 81 77 90 91 93 99 99
63 61 58 54 54 54 52 49 44 40 38 36 39 46 56 68 72 94 95 90 94 92 89 86 87 89 85 82 79 76 78 78 75 91 89 91 96 97
64 62 60 58 58 57 56 55 51 47 40 37 36 40 47 56 70 75 94 93 91 95 94 91 88 86 88 81 74 72 70 67 68 82 87 91 96 94
62 64 62 61 62 61 62 63 60 55 49 42 40 38 41 48 56 75 75 94 91 92 98 96 89 86 89 87 82 72 71 62 62 66 78 82 93 98
64 64 65 62 61 65 64 70 68 64 58 52 45 40 40 43 49 58 80 75 87 92 93 97 93 90 90 89 87 79 77 74 71 65 67 76 83 88
68 68 68 68 69 70 69 67 72 74 70 61 53 44 41 41 45 52 59 85 76 80 84 90 96 96 96 91 89 87 80 77 75 71 70 71 78 83
77 74 76 76 76 75 74 71 70 75 77 74 65 53 44 42 43 47 53 59 86 73 69 81 92 94 98 98 97 92 88 87 83 78 77 76 80 86
94 89 80 77 80 80 76 73 71 72 76 80 77 65 53 44 44 44 49 54 59 86 69 65 89 92 91 91 93 95 94 94 94 92 91 89 86 87

GFSNE_prec_cthk_033.txt.gz
RH
52 53 55 52 59 61 69 68 73 66 46 46 52 46 38 40 42 40 36 32 30 31 36 40 41 42 42 44 46 47 47 39 32 34 40 36 32 28
49 45 46 46 48 54 67 68 67 70 57 51 37 34 36 38 37 34 32 31 35 40 42 43 46 47 47 47 50 50 49 47 35 32 40 36 33 30
52 51 51 51 53 61 66 64 68 57 41 32 32 33 34 33 30 31 36 41 45 47 49 49 50 52 54 52 52 49 49 49 42 36 28 29 30 28
56 57 54 53 49 52 51 45 36 32 33 31 32 33 31 32 36 38 42 46 48 52 55 58 59 66 65 62 59 59 54 60 55 43 29 20 23 27
57 53 49 44 41 36 31 31 34 33 33 37 34 31 34 37 41 45 51 53 56 59 63 64 64 63 60 54 59 63 66 63 62 54 39 25 19 26
54 52 42 39 37 36 35 34 35 36 37 34 32 34 39 45 52 56 57 60 62 66 64 62 64 60 54 52 52 53 62 68 67 59 45 33 22 23
49 43 39 36 37 35 33 35 39 39 36 32 35 39 43 50 58 61 62 64 65 61 59 57 51 47 46 51 54 62 65 70 69 64 55 45 27 20
43 37 38 39 38 36 36 40 43 39 32 31 38 43 48 58 61 63 71 68 61 59 58 46 53 48 50 55 66 81 83 83 81 76 67 54 35 22
50 42 41 42 39 39 42 43 38 33 30 34 41 48 50 58 62 72 74 72 69 61 61 57 59 56 58 61 76 85 89 86 81 77 71 58 38 25
56 45 44 45 43 42 44 40 34 31 30 34 43 45 47 54 72 82 81 75 70 61 70 64 67 67 70 73 82 85 87 79 78 76 69 55 38 31
59 46 47 47 45 45 43 38 32 31 31 34 39 45 51 63 80 87 84 78 70 61 72 79 74 74 76 76 86 90 85 76 71 79 75 57 40 50
55 49 51 50 47 48 40 36 33 32 32 34 37 43 52 65 82 88 84 79 74 62 71 80 83 84 79 80 82 88 89 82 76 77 68 53 45 70
54 55 54 52 50 45 40 39 38 36 35 35 37 40 49 60 81 88 87 83 82 73 80 89 84 89 90 83 81 89 92 94 94 82 63 52 60 83
61 60 59 56 50 46 43 44 43 39 37 35 37 40 47 55 69 89 89 86 87 87 82 85 84 89 93 91 84 85 89 96 94 75 63 56 69 90
68 65 62 59 53 50 48 49 49 44 40 36 36 38 42 51 57 78 91 89 85 91 93 91 89 88 94 94 90 85 90 95 89 86 77 65 78 97
72 66 62 62 60 55 53 52 54 51 47 42 38 37 38 44 54 61 86 92 86 86 94 92 90 87 89 94 91 89 92 92 90 88 81 84 95 99
76 69 64 64 62 59 58 57 58 58 55 51 44 40 36 38 45 55 71 82 93 87 91 93 90 84 89 87 89 85 84 85 89 95 92 95 98 99
77 74 68 65 65 61 60 60 61 64 62 60 53 44 39 37 40 48 61 75 87 92 94 94 90 83 87 87 84 79 79 79 91 92 91 96 98 98
76 72 65 64 64 63 60 62 61 66 69 69 63 50 43 39 39 44 51 71 75 93 93 96 95 88 89 88 85 81 79 72 74 83 84 89 99 97
81 74 68 67 67 65 63 65 64 63 71 75 72 60 50 42 39 41 47 54 82 74 79 88 95 95 94 90 87 86 81 78 70 69 76 80 88 92
85 83 76 73 72 71 69 71 71 70 70 73 77 74 60 52 43 41 43 50 58 83 67 79 95 99 99 94 89 88 85 81 80 74 73 77 79 81
87 92 90 82 74 73 76 77 77 74 73 73 74 80 75 60 49 42 42 44 52 62 78 70 94 95 99 99 97 92 89 87 82 80 77 74 74 79
93 94 96 96 88 80 77 80 80 80 76 73 70 77 80 70 56 47 43 43 47 53 59 77 73 98 96 97 99 98 97 90 88 87 82 80 80 78

GFSNE_prec_cthk_036.txt.gz
RH
58 58 56 52 52 58 60 59 62 62 53 53 50 46 40 30 27 28 28 29 29 27 27 27 34 39 44 46 47 47 47 45 39 33 32 37 39 41
58 57 52 53 57 62 67 66 65 63 60 57 47 33 26 24 24 27 28 26 26 28 31 34 38 45 45 47 48 47 47 47 42 37 34 32 36 40
72 66 62 64 64 61 58 54 59 63 56 35 28 25 25 27 28 27 28 29 32 35 38 41 43 46 45 49 51 50 51 48 45 39 38 35 37 40
76 76 67 64 64 58 49 44 40 36 34 31 26 28 31 30 29 30 32 35 39 43 46 47 47 49 50 54 55 52 48 47 48 44 41 40 36 32
84 73 68 65 56 45 40 38 35 36 35 32 30 33 28 29 31 34 38 42 45 46 47 50 53 54 55 57 55 53 50 48 48 49 48 47 40 31
80 75 69 54 44 39 38 37 36 35 35 35 34 29 27 31 37 41 38 45 46 53 53 57 58 57 55 54 52 50 50 50 49 52 56 48 45 35
81 69 52 45 40 39 37 36 38 36 39 34 31 27 30 36 41 44 46 49 59 57 60 61 58 53 48 44 42 42 45 50 52 55 62 58 53 44
65 55 52 49 45 40 39 40 40 42 38 33 28 28 34 39 43 46 49 62 66 64 65 56 59 50 46 45 44 43 50 67 69 64 63 59 57 50
54 53 55 56 47 44 44 44 44 43 38 31 28 31 33 39 42 48 61 70 72 67 63 54 57 53 54 57 58 53 58 74 75 71 64 63 56 53
55 57 60 59 47 47 47 46 45 40 35 33 33 33 35 40 48 57 70 75 73 68 67 55 57 59 62 62 66 70 72 77 75 67 67 60 56 50
56 60 64 57 50 50 49 47 44 38 37 37 37 37 36 42 51 60 73 76 73 67 68 69 65 64 67 65 66 74 73 80 76 71 64 60 58 57
58 64 61 52 53 53 52 50 41 39 41 39 39 38 37 40 45 58 73 80 80 72 76 70 68 73 70 72 72 75 74 80 83 78 66 63 66 60
63 65 60 60 57 57 56 48 44 42 45 43 40 39 39 40 44 47 66 81 84 80 78 84 72 74 79 79 78 78 76 83 86 87 79 74 69 67
68 72 71 66 63 60 55 50 50 48 49 50 44 41 39 40 39 47 49 75 86 85 81 88 87 82 80 82 85 77 77 85 94 98 91 77 65 64
72 78 80 74 68 61 60 54 55 54 53 54 51 48 43 41 38 40 48 59 84 88 86 88 92 87 85 86 91 82 79 86 94 99 95 74 61 70
75 79 87 81 72 68 66 61 58 58 58 60 59 57 49 44 39 39 42 55 64 84 89 90 94 89 83 86 92 86 86 87 92 98 93 70 78 88
76 80 83 80 76 70 68 64 59 61 61 64 66 65 58 46 40 38 42 49 60 77 92 90 93 91 85 84 89 85 83 86 91 99 92 92 88 98
75 81 86 81 76 69 68 66 62 61 62 64 71 73 67 52 44 39 41 45 58 70 91 91 92 90 86 82 86 82 79 83 90 93 95 98 98 99
73 85 87 81 78 73 68 66 65 62 63 64 70 77 74 58 50 42 41 44 50 68 73 82 89 94 89 84 84 82 79 81 85 90 89 98 98 98
77 86 90 84 83 74 72 69 68 67 68 69 70 75 78 71 57 49 43 42 46 58 69 74 91 97 96 90 83 81 82 80 78 86 88 93 98 98
80 88 94 88 88 81 77 76 71 69 72 73 74 75 76 78 66 56 45 43 43 49 63 71 96 97 99 96 90 85 84 86 82 84 87 88 92 94
83 88 94 92 96 93 84 80 77 76 76 77 78 75 73 77 78 64 49 45 43 46 51 69 80 98 98 99 97 93 88 85 82 77 73 77 80 85
88 90 95 94 96 98 98 92 83 80 80 82 83 79 75 73 80 74 57 50 46 45 46 48 78 85 98 96 99 98 97 90 86 80 78 74 73 76

GFSNE_prec_cthk_039.txt.gz
RH
68 71 75 71 66 65 66 70 75 73 72 71 67 60 52 44 42 30 20 20 20 22 25 26 32 33 35 39 40 40 41 43 41 41 43 44 42 41
74 74 69 69 66 69 70 67 69 73 65 56 42 37 34 29 23 22 23 25 27 28 28 28 32 36 40 43 43 43 43 42 42 41 41 42 42 42
73 76 72 74 73 66 66 68 64 58 48 32 29 29 25 24 24 25 27 28 28 30 31 33 37 38 39 40 41 44 44 43 41 39 41 40 40 42
76 79 81 78 73 69 66 60 54 45 39 32 28 27 26 27 26 27 28 30 31 32 33 34 34 37 41 45 46 47 47 47 43 37 33 32 38 40
82 83 82 79 70 63 55 47 42 41 40 35 32 31 29 29 26 27 30 31 30 29 33 38 44 48 48 48 49 49 48 45 41 37 34 33 35 38
78 79 71 65 54 48 44 43 42 41 41 39 37 33 31 27 28 31 28 33 31 37 44 50 53 53 54 52 49 46 46 44 40 37 35 35 35 40
67 62 53 45 45 47 49 47 44 44 42 42 39 34 31 29 31 32 33 32 37 47 52 56 57 56 55 50 47 43 40 39 37 37 41 45 45 47
50 47 50 48 49 53 54 49 45 46 45 43 40 35 32 33 32 32 37 41 46 59 58 58 57 54 56 55 48 48 46 42 39 42 56 55 53 54
47 49 51 49 52 57 60 51 50 49 46 44 39 36 35 35 33 32 38 48 59 62 61 59 59 55 59 52 50 50 56 52 49 59 62 63 59 55
46 49 53 53 54 59 61 53 55 52 48 44 38 40 39 36 35 35 38 47 60 66 67 63 66 64 63 56 54 52 57 60 63 63 63 60 61 60
46 51 53 53 57 57 52 57 58 55 49 42 42 44 43 41 39 37 36 41 55 66 68 73 72 68 63 61 58 61 64 62 61 61 62 62 63 57
47 49 52 55 57 57 56 60 59 57 50 47 46 46 47 45 43 43 40 39 48 66 75 77 76 80 67 61 70 74 73 69 64 67 66 68 66 60
48 53 55 61 63 68 63 62 61 56 52 52 49 48 49 48 46 44 43 43 42 59 77 83 79 79 83 75 68 78 79 71 66 80 88 77 72 64
50 55 59 65 69 74 71 67 63 59 54 55 55 53 53 52 51 45 42 40 47 51 73 88 86 87 86 80 75 78 86 72 80 91 97 94 80 70
53 58 65 70 73 81 82 75 68 67 60 58 58 58 59 58 56 49 41 40 44 48 56 80 93 90 92 85 80 86 89 74 85 90 98 98 94 77
54 62 68 75 80 83 83 82 75 73 67 60 59 60 63 67 61 52 43 39 38 50 52 79 95 92 90 86 85 91 89 81 82 90 98 97 79 76
59 64 71 78 82 85 83 82 78 73 70 61 60 62 65 71 68 54 49 42 41 43 55 69 92 90 90 84 84 93 84 81 81 90 97 92 87 89
59 63 71 81 87 89 87 83 78 71 71 65 62 64 66 73 75 59 53 46 41 42 54 61 79 86 91 88 87 91 81 82 81 92 96 98 98 99
55 59 68 80 88 91 90 85 76 72 72 69 65 67 68 74 76 69 56 48 42 42 48 57 80 92 96 90 88 89 82 81 80 90 90 97 98 98
65 62 66 77 87 93 94 91 78 74 74 70 68 71 71 74 77 77 63 51 43 41 44 52 82 99 99 98 88 89 87 85 85 87 87 95 98 98
81 73 65 79 89 93 95 95 87 79 78 73 70 72 74 76 76 77 72 57 47 42 42 45 67 98 99 99 96 89 87 88 86 87 84 87 93 94
75 74 70 79 91 95 96 98 94 86 82 76 76 76 79 79 77 76 76 66 53 46 43 42 52 85 99 99 99 96 91 90 87 85 84 85 86 87
79 82 79 83 93 97 97 99 98 94 89 84 79 81 84 83 81 78 77 73 62 52 45 42 43 61 87 98 98 99 98 90 88 85 83 85 86 85

GFSNE_prec_cthk_042.txt.gz
RH
75 72 74 70 65 62 58 52 57 57 60 67 68 67 62 54 44 33 27 22 20 20 21 22 24 29 31 36 37 37 38 38 41 42 45 46 47 46
79 75 73 72 63 59 55 57 60 60 58 55 50 46 41 34 30 25 23 22 23 25 26 27 26 30 33 35 37 37 41 40 40 45 44 46 48 48
77 73 72 64 56 54 53 42 40 39 35 33 34 37 34 31 28 26 25 26 26 28 28 28 29 29 31 31 32 36 37 38 43 45 44 45 45 49
81 76 61 53 45 40 34 33 35 38 37 34 35 35 35 32 29 28 28 28 28 29 30 29 29 32 36 38 37 37 37 39 46 46 48 46 45 45
71 53 39 40 43 37 37 36 38 41 40 39 36 36 35 32 30 29 27 27 29 31 33 36 38 41 44 46 44 41 39 39 40 41 41 40 38 37
43 36 36 41 41 41 42 44 45 46 45 42 40 39 35 32 30 28 29 30 31 35 40 44 47 48 49 48 47 46 44 42 39 38 38 37 35 34
32 33 39 43 43 47 47 47 50 50 48 45 44 41 36 33 32 33 33 31 31 39 43 49 51 49 49 49 50 48 43 39 37 36 34 34 34 40
29 36 41 44 49 50 51 51 53 54 52 49 49 42 39 34 36 37 36 36 37 39 44 50 54 50 50 51 52 46 42 41 43 44 40 39 46 54
31 38 43 47 51 52 55 54 54 56 51 53 51 46 41 38 39 38 39 41 40 39 44 50 54 56 59 60 57 48 45 41 46 51 56 54 57 56
33 42 48 50 51 58 57 54 51 51 55 57 53 47 43 41 42 43 44 43 38 39 42 47 57 58 60 63 60 54 49 47 51 52 50 49 52 53
38 45 51 52 56 59 58 55 52 54 59 60 54 48 46 45 46 49 48 46 39 35 42 47 60 59 61 63 68 68 64 57 57 56 52 51 52 51
41 49 53 55 58 61 61 60 63 59 63 63 54 50 50 48 49 51 50 49 46 37 42 44 62 69 65 62 63 72 67 65 63 59 56 58 64 63
47 51 56 57 59 62 64 66 71 67 68 65 58 54 53 52 52 53 53 52 47 42 43 47 53 73 82 75 64 72 71 72 71 61 62 74 83 83
52 53 50 56 59 63 67 73 78 81 76 69 66 59 58 57 58 58 57 53 51 45 41 45 52 65 83 84 76 70 70 76 77 71 79 87 96 98
52 54 57 58 58 64 71 80 82 84 84 75 71 65 60 60 61 62 62 55 52 49 44 44 54 72 90 86 80 71 71 81 73 76 84 95 98 96
59 63 66 59 60 66 74 82 86 87 86 80 74 71 63 61 62 64 67 59 53 48 46 45 52 75 89 87 84 74 88 83 76 81 92 98 96 88
65 77 68 62 58 64 76 82 88 89 89 82 75 74 66 63 64 67 70 63 55 49 38 44 44 63 84 87 82 83 88 79 81 83 95 99 94 92
77 75 68 60 56 63 73 83 89 91 91 84 76 74 69 65 67 70 72 68 58 51 39 39 45 70 88 92 87 84 87 81 81 92 97 99 99 99
73 75 65 64 67 65 70 81 90 94 94 86 77 75 72 68 70 72 74 73 62 53 42 40 45 79 96 95 93 84 88 84 84 92 95 99 98 98
46 69 83 76 76 74 69 82 90 96 95 87 78 76 74 69 71 73 74 73 68 56 45 43 41 72 98 97 97 88 88 88 88 90 91 93 96 98
64 80 79 73 83 78 72 81 90 96 97 92 81 80 76 72 72 75 75 74 72 62 48 44 40 55 95 99 98 96 88 90 92 91 91 89 91 92
78 79 78 77 84 85 79 84 91 97 98 97 87 82 79 77 78 79 76 76 73 69 55 46 41 43 71 98 99 99 94 90 89 89 87 86 86 88
68 80 81 78 85 84 84 87 96 99 98 97 94 87 84 81 81 84 80 78 77 73 63 51 44 42 48 77 97 99 99 96 89 86 86 85 88 89

GFSNE_prec_cthk_045.txt.gz
RH
83 81 76 71 70 63 56 49 41 30 27 31 32 28 27 26 27 25 23 22 20 20 19 19 20 21 21 27 28 29 32 36 38 40 44 43 44 44
86 83 78 71 66 58 51 35 33 30 30 33 35 33 32 32 29 27 25 23 22 22 23 23 23 24 24 29 30 30 30 33 40 40 42 46 47 47
86 82 74 69 55 39 34 32 36 36 36 36 36 37 35 33 32 30 27 25 24 24 24 24 24 24 26 25 26 27 31 35 37 43 43 47 50 49
86 77 73 61 41 35 35 36 37 39 40 39 44 40 37 35 33 31 29 27 27 26 26 26 27 28 30 32 34 35 37 41 42 42 46 47 46 48
86 76 59 39 34 36 37 38 40 40 41 44 44 45 39 39 38 35 32 30 31 29 29 30 31 34 37 38 40 42 44 42 40 39 41 42 43 42
80 55 36 31 32 37 40 42 45 46 48 49 49 48 43 44 41 36 37 36 36 33 35 36 36 38 41 43 44 45 44 44 42 40 39 40 40 37
53 36 27 27 33 39 42 47 51 54 54 53 54 52 46 49 43 41 39 38 40 40 41 45 41 45 48 47 44 45 47 46 43 42 43 42 39 35
35 23 23 28 34 42 46 51 58 60 58 58 58 48 49 52 46 45 42 43 43 43 43 41 40 46 51 50 53 54 51 49 47 44 42 44 40 36
19 21 26 32 39 45 50 58 65 65 61 58 51 51 54 55 49 49 46 46 48 47 44 41 37 42 53 55 58 57 52 51 49 47 43 46 51 50
21 24 29 35 42 49 56 63 67 63 58 54 52 54 57 54 49 51 50 48 51 54 47 42 38 38 53 54 58 62 60 59 57 52 51 47 44 42
25 29 34 41 48 54 60 62 58 60 60 59 57 57 60 55 50 53 53 52 52 59 50 47 44 37 44 61 61 63 62 62 61 59 53 49 47 43
31 37 44 48 51 57 57 58 59 63 64 65 61 61 62 58 54 53 56 55 56 57 55 50 43 46 39 59 70 67 64 61 61 55 54 49 47 48
39 42 47 50 51 54 59 59 64 68 67 72 74 75 68 65 63 61 60 59 57 57 58 52 45 46 53 55 71 75 72 69 60 56 57 54 59 68
43 45 47 50 55 57 63 67 71 69 71 76 81 83 76 71 69 63 61 61 62 59 59 54 46 45 52 61 75 79 75 69 62 66 59 62 68 78
51 49 52 54 60 56 64 70 74 69 74 78 86 88 83 78 72 62 61 63 64 58 54 52 44 44 58 67 80 77 69 66 72 65 69 79 87 92
44 49 57 58 67 66 70 71 75 70 75 78 89 92 89 78 73 64 62 66 69 66 56 50 41 39 58 69 80 79 73 78 69 73 82 89 98 97
33 32 48 59 52 76 74 70 65 66 76 81 90 93 90 80 75 67 64 67 71 72 64 56 43 38 59 79 85 83 76 78 75 80 91 97 99 97
26 32 32 44 52 82 81 70 67 66 76 83 90 96 94 83 77 70 67 69 73 73 66 57 46 43 66 90 90 86 80 82 80 87 95 99 98 99
26 26 36 43 46 73 82 79 77 73 77 85 89 97 97 85 77 74 70 71 74 73 67 60 48 44 64 93 95 88 83 84 83 90 93 98 99 98
37 40 49 53 53 65 87 82 80 76 78 85 91 97 96 86 79 75 71 74 76 75 70 63 52 45 56 90 96 94 82 87 87 87 88 91 98 97
46 43 50 61 77 87 87 84 77 84 79 84 94 98 96 86 81 76 74 75 76 75 74 67 54 42 46 77 95 97 90 86 88 85 84 82 84 94
55 51 55 68 79 85 87 84 82 89 84 87 97 99 98 89 85 80 78 79 78 78 76 68 57 45 44 56 90 98 98 89 88 87 82 81 81 85
57 65 58 76 78 82 89 88 85 91 87 91 99 99 98 92 86 84 82 83 81 79 78 72 64 50 44 45 59 92 98 98 91 89 85 84 83 84

GFSNE_prec_cthk_048.txt.gz
RH
90 91 97 92 89 84 77 69 62 47 38 31 30 35 37 40 38 34 29 28 22 19 19 20 19 20 20 21 27 29 31 37 37 39 40 43 44 47
97 95 95 94 92 87 75 64 52 45 39 35 34 38 42 40 39 36 32 29 24 22 21 20 20 22 23 23 26 29 31 31 32 38 37 38 42 43
95 92 94 95 90 82 72 62 50 45 38 36 42 47 45 42 43 43 40 32 26 25 24 22 23 24 25 25 25 26 31 35 36 39 43 42 42 46
92 97 97 94 89 78 68 54 50 43 44 39 44 47 53 50 49 47 43 34 29 30 26 23 26 26 27 28 30 32 34 36 37 39 42 42 46 45
96 96 95 93 85 71 60 52 44 50 46 47 47 54 56 57 55 51 43 38 37 35 30 30 33 30 32 32 35 39 40 41 40 41 41 39 39 38
98 97 93 85 66 55 49 43 46 47 49 57 58 59 64 64 56 52 47 41 41 40 36 37 39 39 37 38 40 41 41 42 42 41 39 37 35 34
96 91 75 55 42 37 37 44 53 51 54 63 62 66 66 63 61 55 47 44 46 45 43 47 47 47 43 46 47 50 51 50 48 46 43 39 36 40
73 60 47 39 27 26 30 39 44 58 61 62 64 66 61 63 58 57 51 49 49 51 47 49 51 49 45 47 49 47 51 53 49 45 42 40 36 37
48 42 36 34 30 30 35 42 48 54 57 61 65 66 63 64 61 60 54 55 53 51 50 51 55 52 49 51 48 48 53 56 54 51 48 45 42 41
36 34 31 29 37 43 43 50 52 55 54 53 61 60 65 66 63 58 61 61 58 55 57 53 57 56 53 46 44 48 52 57 57 54 53 52 50 48
32 32 32 35 39 42 47 51 52 57 57 57 59 64 62 62 60 62 66 65 62 60 60 57 60 57 51 45 54 60 62 59 60 56 54 54 52 50
32 33 35 37 41 45 48 50 52 58 66 68 62 65 66 67 67 65 70 69 66 63 67 61 61 58 51 44 54 63 61 66 66 64 62 56 54 50
37 38 41 43 39 45 51 52 50 59 65 66 78 77 71 73 76 77 77 74 70 65 68 63 65 60 55 48 54 66 71 73 74 71 64 57 55 54
33 34 41 44 48 46 52 49 58 72 70 73 76 85 77 81 85 88 85 81 73 66 66 68 67 60 49 45 58 72 73 76 74 64 67 60 63 67
18 22 24 31 36 45 54 61 73 80 71 76 80 77 79 86 88 93 87 78 71 67 65 64 64 61 49 49 59 73 77 76 68 73 63 66 85 94
15 18 19 25 28 30 42 49 58 67 78 80 82 77 83 87 91 96 88 79 72 69 72 68 63 54 47 52 66 82 81 72 72 68 73 90 96 96
13 11 17 21 27 38 41 54 69 77 82 79 74 75 85 88 94 97 90 81 73 71 73 76 71 58 49 50 74 89 84 74 74 75 90 96 98 98
21 25 27 29 33 33 48 61 58 84 83 81 82 79 86 91 98 98 91 81 75 74 75 76 72 61 51 55 80 91 84 78 78 84 95 98 97 98
29 32 35 44 53 55 62 65 62 86 80 85 86 78 84 93 99 99 93 82 77 75 77 77 75 63 52 53 80 92 88 80 80 82 89 93 97 98
29 36 40 43 45 54 69 75 67 67 82 89 81 81 85 93 99 99 95 83 79 77 78 78 76 65 54 52 71 93 91 80 82 82 81 82 90 96
28 34 42 52 48 55 71 85 87 89 89 84 83 88 86 94 99 98 94 85 80 79 79 79 77 61 47 46 58 92 96 87 84 82 77 77 81 89
31 33 41 55 59 69 79 80 87 89 89 87 86 89 91 96 99 98 95 88 79 81 82 82 75 66 56 52 52 70 96 95 84 84 80 75 77 80
35 36 36 50 69 72 78 85 89 91 91 90 90 94 93 98 99 98 97 89 84 86 85 82 80 71 61 51 48 54 78 95 95 86 84 80 76 76

GFSNE_prec_cthk_051.txt.gz
RH
87 91 94 96 97 97 93 90 86 85 81 74 66 57 47 46 43 39 35 34 32 29 26 24 21 17 17 18 19 21 29 29 34 37 38 41 41 44
90 92 95 96 96 95 91 89 91 89 80 72 59 50 45 40 42 40 39 38 39 38 32 28 24 20 20 20 22 25 29 33 33 39 39 42 43 43
88 88 93 90 88 90 91 93 93 85 70 53 48 44 46 46 48 51 49 48 49 44 37 31 25 23 23 24 27 28 28 35 37 44 44 44 46 48
98 96 96 93 95 96 96 92 84 71 57 46 40 40 46 50 52 54 54 51 50 49 40 33 29 27 27 29 32 32 32 34 37 41 44 45 49 47
96 97 90 94 96 96 88 81 67 58 51 48 47 50 51 56 57 58 59 56 51 46 41 36 35 35 33 36 37 37 39 37 37 40 41 42 43 45
93 92 94 96 91 81 74 63 50 50 52 55 60 54 55 60 65 64 59 59 58 51 47 45 42 42 43 45 45 42 43 44 42 44 49 48 47 45
89 91 86 76 69 63 47 37 36 47 52 62 64 61 67 69 68 67 67 61 57 54 52 54 53 49 45 50 55 52 50 46 45 49 50 46 44 43
77 69 62 55 44 37 32 31 31 35 39 50 58 67 71 67 67 73 70 64 59 60 61 57 57 49 53 56 58 50 46 45 41 49 52 50 47 44
50 43 39 39 38 38 39 40 37 36 42 48 52 52 61 68 70 76 70 69 65 60 66 55 60 57 58 60 61 51 46 40 41 47 53 51 48 46
34 33 38 41 41 42 41 40 45 45 47 51 51 48 54 57 70 73 73 69 63 63 72 66 67 63 61 57 56 52 48 46 45 47 53 54 49 45
34 36 41 41 39 40 41 40 39 42 46 56 58 58 57 57 66 79 77 75 66 70 76 74 71 64 65 57 62 57 49 48 51 52 59 58 53 49
37 36 36 36 35 34 39 40 42 42 49 58 67 61 62 66 70 83 79 76 78 74 80 81 76 69 61 61 62 53 50 55 59 60 63 60 57 55
27 28 27 25 28 31 33 42 49 48 50 55 64 76 79 76 70 76 81 76 78 79 80 80 72 68 70 62 58 52 55 63 64 69 68 67 68 60
23 19 15 13 11 11 19 27 36 50 65 64 78 84 91 89 86 89 79 77 80 88 83 79 69 69 68 63 56 48 61 68 69 72 70 72 60 67
18 15 12 9 7 11 16 17 26 30 43 51 64 80 79 77 90 88 84 88 91 93 81 74 67 70 71 63 52 51 64 71 76 75 72 60 79 93
16 13 11 11 14 18 21 24 31 40 39 44 52 69 79 88 82 84 89 90 95 92 78 71 69 71 71 63 54 54 72 79 78 74 70 81 96 98
16 17 22 27 30 39 42 48 42 49 56 63 80 85 90 86 82 84 90 93 97 93 81 75 78 74 71 61 54 60 79 85 77 74 74 94 98 98
18 25 24 23 29 32 34 42 56 62 70 70 73 90 88 89 88 87 92 95 98 95 81 80 80 80 76 67 60 63 82 87 76 74 80 94 93 97
23 26 26 26 27 32 36 38 50 65 80 74 84 89 88 88 92 87 92 97 98 96 84 82 82 82 79 69 61 61 80 90 80 76 79 88 85 93
26 28 28 27 29 33 42 45 48 63 83 72 72 82 89 94 87 91 93 99 99 97 85 83 83 83 80 69 53 50 73 90 84 78 77 76 78 91
27 29 31 32 31 32 46 51 64 81 94 95 89 92 97 85 87 93 94 99 99 97 88 84 84 81 74 59 49 50 69 87 91 78 76 73 73 79
27 28 30 33 34 32 38 57 75 89 90 90 90 93 95 91 86 94 96 99 98 96 85 86 87 81 77 69 59 56 56 74 90 87 78 75 72 72
31 31 32 31 33 36 36 54 79 89 91 88 89 96 96 92 91 97 98 99 99 97 86 85 88 84 82 73 63 53 50 55 80 91 86 80 74 70